Location: Central Falls
(41.8900°N, 71.3929°W)
Time: 02:44:56
(UTC+00:00)

Tiros 1 - Pass Details

Date: 13 December 2023
Orbit: 625 x 658 km, 48.4° (Epoch: 01 March)

Event Time Altitude Azimuth Distance (km) Brightness Sun altitude
Rises 09:18:07 0° 289° (WNW) 2,980 - -30.0°
Reaches altitude 10° 09:20:36 10° 297° (WNW) 2,071 - -29.6°
Maximum altitude 09:25:06 39° 7° (N) 989 - -28.8°
Exits shadow 09:26:04 35° 36° (NE) 1,066 8.4 -28.6°
Drops below altitude 10° 09:29:35 10° 76° (ENE) 2,073 10.6 -27.9°
Sets 09:32:04 0° 85° (E) 2,983 11.8 -27.5°
